Meteo Giornale » Osservazioni meteo Svezia » Stockholm-Arlanda

ore: 08:50 - Osservazioni Meteo Stockholm-Arlanda
Lat. 59° 39' N Lon. 17° 57' E Alt. 38 metri s.l.m.

nuvoloso Europe/Stockholm

6 °C

Nuvoloso

Temp. 24 Ore

6 °C

14 °C

Ovest/Nord-Ovest

18.5 Km/h

Dew point 4 °C

Umidità 86 %

Visibilità  10 Km

Il sole sorge alle ore 07:33

Il sole tramonta alle ore 17:32

Data e Ora Cielo e Fenomeni T °C DP °C Um. % Pres. hPa Vis. km Vento km/h
Oggi h: 08:50 nuvoloso Nuvoloso 6 4 86 1008 10 O/NO 18.5
Oggi h: 08:20 molto_nuvoloso Molto Nuvoloso 6 5 93 1008 10 NO 18.5
Oggi h: 07:50 molto_nuvoloso Molto Nuvoloso 6 5 93 1007 10 NO 16.7
Oggi h: 07:20 molto_nuvoloso Molto Nuvoloso 6 5 93 1006 10 N/NO 20.3
Oggi h: 06:50 molto_nuvoloso Molto Nuvoloso 6 6 100 1006 10 N/NO 20.3
Oggi h: 06:20 molto_nuvoloso Molto Nuvoloso 7 6 93 1005 10 N/NO 24
Oggi h: 05:50 molto_nuvoloso Molto Nuvoloso 7 6 93 1005 7 N/NO 24
Oggi h: 05:20 molto_nuvoloso Molto Nuvoloso 7 6 93 1004 10 N/NO 22.2
Oggi h: 04:50 coperto_pioggia Pioviggine Leggera 7 7 100 1003 10 N/NO 18.5
Oggi h: 04:20 coperto_pioggia Pioviggine Leggera 8 7 93 1002 10 N 25.9
Oggi h: 03:50 coperto_pioggia Pioviggine 10 9 93 1001 6 NO 20.3
Oggi h: 03:20 coperto Coperto 11 10 93 1001 10 O 20.3
Oggi h: 02:50 coperto_pioggia Pioviggine 11 10 93 1001 8 O 20.3
Oggi h: 02:20 coperto_pioggia Pioggia 11 10 93 1001 7 O/SO 24
Oggi h: 01:50 coperto_pioggia Pioggia Debole 11 10 93 1001 10 O/SO 24
Oggi h: 01:20 coperto_pioggia Pioggia 11 10 93 1001 5 SO 18.5
Oggi h: 00:50 coperto_pioggia Pioviggine 11 10 93 1001 5 O/SO 22.2
Oggi h: 00:20 coperto_pioggia Pioviggine 11 9 87 1001 5 SO 20.3
Ieri h: 23:50 coperto_pioggia Pioviggine 11 10 93 1001 5 SO 24
Ieri h: 23:20 molto_nuvoloso Molto Nuvoloso 11 10 93 1001 7 SO 24
Ieri h: 22:50 molto_nuvoloso Molto Nuvoloso 11 9 87 1002 10 SO 24
Ieri h: 22:20 molto_nuvoloso Molto Nuvoloso 11 9 87 1002 10 SO 25.9
Ieri h: 21:50 molto_nuvoloso Molto Nuvoloso 11 9 87 1002 10 SO 25.9
Ieri h: 21:20 molto_nuvoloso Molto Nuvoloso 12 9 81 1002 10 SO 29.6
Ieri h: 20:50 molto_nuvoloso Molto Nuvoloso 12 9 81 1003 10 O/SO 25.9
Ieri h: 20:20 molto_nuvoloso Molto Nuvoloso 11 9 87 1003 10 SO 27.8
Ieri h: 19:50 molto_nuvoloso Molto Nuvoloso 12 9 81 1003 10 O/SO 29.6
Ieri h: 19:20 sereno Sereno 12 8 76 1003 10 O/SO 25.9
Ieri h: 18:50 nuvoloso Nuvoloso 12 8 76 1003 10 SO 29.6
Ieri h: 18:20 sereno Sereno 13 8 71 1003 10 O/SO 27.8
Ieri h: 17:50 molto_nuvoloso Molto Nuvoloso 13 8 71 1003 10 O/SO 27.8
Ieri h: 17:20 molto_nuvoloso Molto Nuvoloso 13 8 71 1003 10 O/SO 27.8
Ieri h: 16:50 sereno Sereno 14 8 67 1003 10 O/SO 25.9
Ieri h: 16:20 sereno Sereno 14 7 62 1004 10 O/SO 31.5
Ieri h: 15:50 sereno Sereno 14 7 62 1004 10 O/SO 35.2
Ieri h: 15:20 sereno Sereno 14 8 67 1004 10 O/SO 33.3
Ieri h: 14:50 sereno Sereno 14 9 71 1004 10 O/SO 33.3
Ieri h: 14:20 sereno Sereno 14 10 76 1004 10 O/SO 29.6
Ieri h: 13:50 molto_nuvoloso Molto Nuvoloso 13 11 87 1005 10 SO 24
Ieri h: 13:20 foschia Foschia 12 11 93 1005 7 SO 18.5
Ieri h: 12:50 foschia Foschia 12 11 93 1005 8 S/SO 22.2
Ieri h: 12:20 molto_nuvoloso Molto Nuvoloso 12 11 93 1006 10 S/SO 20.3
Ieri h: 11:50 molto_nuvoloso Molto Nuvoloso 11 10 93 1007 10 S 22.2
Ieri h: 11:20 molto_nuvoloso Molto Nuvoloso 11 10 93 1007 10 S 25.9
Ieri h: 10:50 coperto_pioggia Pioviggine Leggera 10 10 100 1007 7 S/SE 24
Ieri h: 10:20 foschia Foschia 10 10 100 1008 7 S/SE 18.5
Ieri h: 09:50 coperto Coperto 10 9 93 1009 10 S/SE 14.8